Location: Unspecified
(0.0000°N, 0.0000°E)
Time: 10:02:08
(UTC+02:00)

Cosmos 1954 Rocket - Visible Passes

Search period start: 28 May 2015 00:00
Search period end: 07 June 2015 00:00
Orbit: 752 x 783 km, 74.0° (Epoch: 27 May)

Date Brightness Start Highest point End Pass type
(mag) Time Alt. Az. Time Alt. Az. Time Alt. Az.
28 May 6.7 07:14:21 10° NNE 07:18:22 24° ENE 07:22:32 10° SE visible
29 May 7.5 06:39:57 10° ENE 06:41:06 11° ENE 06:42:42 10° E visible
29 May 7.2 20:52:41 10° WSW 20:55:34 14° WNW 20:58:06 10° NW visible
30 May 6.5 20:13:45 10° SW 20:18:20 29° WNW 20:22:48 10° NNW visible
31 May 5.2 07:03:56 10° N 07:08:52 46° ENE 07:13:49 10° SSE visible
01 Jun 6.5 06:27:47 10° NNE 06:31:40 22° ENE 06:35:44 10° SE visible
02 Jun 7.3 05:53:57 10° ENE 05:54:23 10° ENE 05:55:19 10° E visible
02 Jun 4.4 07:31:33 10° NNW 07:36:26 42° WSW 07:41:16 10° S visible
03 Jun 3.9 06:54:07 10° NNW 06:59:18 88° W 07:04:29 10° SSE visible
04 Jun 5.1 06:17:17 10° N 06:22:10 43° ENE 06:27:05 10° SSE visible
05 Jun 6.4 05:41:13 10° NNE 05:44:58 21° ENE 05:48:55 10° SE visible
05 Jun 5.1 07:22:57 10° NW 07:26:55 21° WSW 07:30:42 10° SSW visible
06 Jun 4.2 06:44:49 10° NNW 06:49:44 44° WSW 06:54:37 10° S visible
